Location: *
(37.5724°S, 58.0067°E)
Time: 09:52:42
(UTC+00:00)

CZ-3A R/B - Pass Details

Date: 25 January 2021
Orbit: 1317 x 30229 km, 55.5° (Epoch: 26 February)

Event Time Altitude Azimuth Distance (km) Brightness Sun altitude
Rises 23:10:56 0° 292° (WNW) 18,459 9.0 -20.7°
Reaches altitude 10° 23:37:10 10° 281° (W) 11,672 8.0 -16.9°
Maximum altitude 00:03:47 39° 211° (SSW) 3,209 5.7 -12.8°
Drops below altitude 10° 00:11:27 10° 140° (SE) 3,633 7.4 -11.6°
Sets 00:13:49 0° 129° (SE) 4,403 8.6 -11.2°
